Madison, MN

1:39 PM CDT on October 14, 2019 (GMT -0500)
Madison-Lac Qui Parle County

Weather History for KDXX - August, 2019

Change the Weather History Date:

Friday, August 30, 2019

  Actual Average (KAQP) Record (KAQP)
Temperature  
Mean Temperature 60 °F -  
Max Temperature 73 °F 77 °F 87 °F (2008)
Min Temperature 48 °F 54 °F 42 °F (2007)
Degree Days  
Heating Degree Days 4    
Growing Degree Days 10 (Base 50)    
Moisture  
Dew Point 52 °F    
Average Humidity 73    
Maximum Humidity 100    
Minimum Humidity 44    
Precipitation  
Precipitation 0.00 in - - ()
Sea Level Pressure  
Sea Level Pressure 30.18 in    
Wind  
Wind Speed 3 mph (NW)    
Max Wind Speed 8 mph    
Max Gust Speed -    
Visibility 10 miles    
Events      
Averages and records for this station are not official NWS values.
T = Trace of Precipitation, MM = Missing Value Source: NWS Daily Summary

Daily Weather History Graph

Daily Weather History Graph

Search for Another Location

Airport or City:

Astronomy

Aug. 30, 2019 Rise Set
Actual Time 6:44 AM CDT 8:05 PM CDT
Civil Twilight 6:13 AM CDT 8:36 PM CDT
Nautical Twilight 5:36 AM CDT 9:12 PM CDT
Astronomical Twilight 4:57 AM CDT 9:51 PM CDT
Moon 6:43 AM CDT (8/30) 8:43 PM CDT (8/30)
Length of Visible Light 14h 22m
Length of Day
13h 21m
New Moon, 0% of the Moon is Illuminated
Aug 30
New Moon
Sep 5
First Quarter
Sep 13
Full
Sep 21
Last Quarter
Sep 28
New

Hourly Weather History & Observations

Time (CDT) Temp. Dew Point Humidity Pressure Visibility Wind Dir Wind Speed Gust Speed Precip Events Conditions
12:15 AM 55.4 °F 51.8 °F 88% 30.09 in 10.0 mi WNW 4.6 mph - N/A   Clear
12:19 AM 55.4 °F 51.8 °F 88% 30.09 in 10.0 mi WNW 4.6 mph - N/A   Clear
12:37 AM 53.6 °F 51.8 °F 94% 30.09 in 10.0 mi West 5.8 mph - N/A   Clear
12:56 AM 53.6 °F 51.8 °F 94% 30.09 in 10.0 mi West 4.6 mph - N/A   Clear
1:15 AM 53.6 °F 50.0 °F 88% 30.10 in 10.0 mi WNW 3.5 mph - N/A   Clear
1:16 AM 51.8 °F 50.0 °F 94% 30.10 in 10.0 mi West 3.5 mph - N/A   Clear
1:35 AM 51.8 °F 50.0 °F 94% 30.09 in 10.0 mi Calm Calm - N/A   Clear
1:36 AM 51.8 °F 50.0 °F 94% 30.09 in 10.0 mi Calm Calm - N/A   Clear
1:58 AM 51.8 °F 50.0 °F 94% 30.09 in 10.0 mi Calm Calm - N/A   Clear
2:16 AM 51.8 °F 50.0 °F 94% 30.09 in 10.0 mi West 4.6 mph - N/A   Clear
2:35 AM 51.8 °F 48.2 °F 88% 30.09 in 10.0 mi West 4.6 mph - N/A   Clear
2:55 AM 50.0 °F 48.2 °F 94% 30.10 in 10.0 mi West 4.6 mph - N/A   Clear
2:56 AM 50.0 °F 48.2 °F 94% 30.10 in 10.0 mi West 4.6 mph - N/A   Clear
3:15 AM 50.0 °F 48.2 °F 94% 30.11 in 10.0 mi West 4.6 mph - N/A   Clear
3:19 AM 51.8 °F 50.0 °F 94% 30.12 in 10.0 mi WSW 3.5 mph - N/A   Clear
3:38 AM 51.8 °F 48.2 °F 88% 30.13 in 10.0 mi WSW 3.5 mph - N/A   Clear
3:55 AM 50.0 °F 48.2 °F 94% 30.13 in 10.0 mi Calm Calm - N/A   Clear
4:15 AM 50.0 °F 48.2 °F 94% 30.13 in 10.0 mi Calm Calm - N/A   Clear
4:35 AM 50.0 °F 48.2 °F 94% 30.14 in 10.0 mi West 3.5 mph - N/A   Clear
4:36 AM 50.0 °F 48.2 °F 94% 30.14 in 10.0 mi Calm Calm - N/A   Clear
4:58 AM 50.0 °F 48.2 °F 94% 30.15 in 10.0 mi Calm Calm - N/A   Clear
5:17 AM 48.2 °F 48.2 °F 100% 30.14 in 10.0 mi Calm Calm - N/A   Clear
5:36 AM 48.2 °F 48.2 °F 100% 30.15 in 10.0 mi West 4.6 mph - N/A   Clear
5:55 AM 48.2 °F 46.4 °F 93% 30.16 in 10.0 mi Calm Calm - N/A   Clear
5:56 AM 48.2 °F 46.4 °F 93% 30.16 in 10.0 mi Calm Calm - N/A   Clear
6:15 AM 48.2 °F 46.4 °F 93% 30.16 in 10.0 mi Calm Calm - N/A   Clear
6:20 AM 48.2 °F 46.4 °F 93% 30.17 in 10.0 mi Calm Calm - N/A   Clear
6:37 AM 48.2 °F 46.4 °F 93% 30.18 in 10.0 mi Calm Calm - N/A   Clear
6:56 AM 48.2 °F 46.4 °F 93% 30.19 in 10.0 mi SW 5.8 mph - N/A   Clear
7:15 AM 50.0 °F 48.2 °F 94% 30.20 in 10.0 mi Calm Calm - N/A   Clear
7:16 AM 50.0 °F 48.2 °F 94% 30.19 in 10.0 mi Calm Calm - N/A   Clear
7:35 AM 51.8 °F 48.2 °F 88% 30.20 in 10.0 mi West 3.5 mph - N/A   Clear
7:36 AM 51.8 °F 48.2 °F 88% 30.20 in 10.0 mi West 3.5 mph - N/A   Clear
7:59 AM 53.6 °F 51.8 °F 94% 30.20 in 10.0 mi Calm Calm - N/A   Clear
8:16 AM 55.4 °F 51.8 °F 88% 30.19 in 10.0 mi WNW 4.6 mph - N/A   Clear
8:36 AM 57.2 °F 51.8 °F 82% 30.19 in 10.0 mi NW 3.5 mph - N/A   Clear
8:55 AM 60.8 °F 53.6 °F 77% 30.20 in 10.0 mi WNW 4.6 mph - N/A   Clear
9:15 AM 60.8 °F 53.6 °F 77% 30.20 in 10.0 mi NW 3.5 mph - N/A   Clear
9:19 AM 62.6 °F 53.6 °F 72% 30.20 in 10.0 mi NW 3.5 mph - N/A   Clear
9:38 AM 62.6 °F 53.6 °F 72% 30.20 in 10.0 mi NNW 3.5 mph - N/A   Clear
9:55 AM 64.4 °F 55.4 °F 73% 30.21 in 10.0 mi West 3.5 mph - N/A   Clear
10:15 AM 66.2 °F 53.6 °F 64% 30.21 in 10.0 mi WNW 3.5 mph - N/A   Clear
10:16 AM 66.2 °F 53.6 °F 64% 30.21 in 10.0 mi Calm Calm - N/A   Clear
10:35 AM 66.2 °F 53.6 °F 64% 30.22 in 10.0 mi Calm Calm - N/A   Clear
10:59 AM 68.0 °F 53.6 °F 60% 30.21 in 10.0 mi Calm Calm - N/A   Clear
11:16 AM 69.8 °F 53.6 °F 56% 30.21 in 10.0 mi Calm Calm - N/A   Clear
11:35 AM 69.8 °F 51.8 °F 53% 30.21 in 10.0 mi Calm Calm - N/A   Clear
11:55 AM 71.6 °F 51.8 °F 50% 30.21 in 10.0 mi Calm Calm - N/A   Clear
11:56 AM 71.6 °F 51.8 °F 50% 30.21 in 10.0 mi Calm Calm - N/A   Clear
12:15 PM 71.6 °F 51.8 °F 50% 30.22 in 10.0 mi NW 6.9 mph - N/A   Clear
12:20 PM 71.6 °F 51.8 °F 50% 30.21 in 10.0 mi North 5.8 mph - N/A   Clear
12:37 PM 71.6 °F 51.8 °F 50% 30.21 in 10.0 mi NW 5.8 mph - N/A   Clear
12:55 PM 71.6 °F 51.8 °F 50% 30.21 in 10.0 mi NW 4.6 mph - N/A   Clear
1:15 PM 71.6 °F 51.8 °F 50% 30.20 in 10.0 mi North 4.6 mph - N/A   Clear
1:16 PM 71.6 °F 51.8 °F 50% 30.20 in 10.0 mi Calm Calm - N/A   Clear
1:35 PM 71.6 °F 51.8 °F 50% 30.21 in 10.0 mi North 5.8 mph - N/A   Clear
1:36 PM 71.6 °F 51.8 °F 50% 30.21 in 10.0 mi North 5.8 mph - N/A   Clear
1:58 PM 73.4 °F 51.8 °F 47% 30.21 in 10.0 mi North 3.5 mph - N/A   Clear
2:17 PM 71.6 °F 51.8 °F 50% 30.21 in 10.0 mi NNW 5.8 mph - N/A   Clear
2:36 PM 73.4 °F 51.8 °F 47% 30.21 in 10.0 mi North 8.1 mph - N/A   Scattered Clouds
2:55 PM 73.4 °F 51.8 °F 47% 30.20 in 10.0 mi NNW 8.1 mph - N/A   Clear
2:56 PM 73.4 °F 51.8 °F 47% 30.20 in 10.0 mi North 8.1 mph - N/A   Clear
3:15 PM 73.4 °F 51.8 °F 47% 30.20 in 10.0 mi NNW 6.9 mph - N/A   Clear
3:19 PM 73.4 °F 51.8 °F 47% 30.20 in 10.0 mi North 6.9 mph - N/A   Clear
3:37 PM 73.4 °F 51.8 °F 47% 30.20 in 10.0 mi North 8.1 mph - N/A   Clear
4:15 PM 73.4 °F 50.0 °F 44% 30.19 in 10.0 mi Calm Calm - N/A   Scattered Clouds
4:16 PM 73.4 °F 51.8 °F 47% 30.19 in 10.0 mi Calm Calm - N/A   Scattered Clouds
4:35 PM 73.4 °F 51.8 °F 47% 30.19 in 10.0 mi Calm Calm - N/A   Scattered Clouds
4:36 PM 73.4 °F 51.8 °F 47% 30.19 in 10.0 mi Calm Calm - N/A   Scattered Clouds
4:59 PM 73.4 °F 51.8 °F 47% 30.19 in 10.0 mi NNE 6.9 mph - N/A   Clear
5:16 PM 73.4 °F 51.8 °F 47% 30.19 in 10.0 mi NNE 3.5 mph - N/A   Clear
5:36 PM 73.4 °F 53.6 °F 50% 30.19 in 10.0 mi Calm Calm - N/A   Clear
5:55 PM 71.6 °F 55.4 °F 57% 30.18 in 10.0 mi Calm Calm - N/A   Clear
6:15 PM 71.6 °F 57.2 °F 60% 30.18 in 10.0 mi Calm Calm - N/A   Clear
6:19 PM 71.6 °F 55.4 °F 57% 30.18 in 10.0 mi NE 3.5 mph - N/A   Clear
6:38 PM 71.6 °F 55.4 °F 57% 30.18 in 10.0 mi East 4.6 mph - N/A   Clear
6:55 PM 71.6 °F 57.2 °F 60% 30.17 in 10.0 mi East 3.5 mph - N/A   Clear
7:15 PM 69.8 °F 57.2 °F 64% 30.18 in 10.0 mi East 3.5 mph - N/A   Clear
7:16 PM 69.8 °F 57.2 °F 64% 30.18 in 10.0 mi East 3.5 mph - N/A   Clear
7:35 PM 68.0 °F 57.2 °F 68% 30.18 in 10.0 mi East 3.5 mph - N/A   Clear
7:58 PM 66.2 °F 55.4 °F 68% 30.18 in 10.0 mi East 3.5 mph - N/A   Clear
8:16 PM 66.2 °F 55.4 °F 68% 30.19 in 10.0 mi Calm Calm - N/A   Clear
8:35 PM 66.2 °F 55.4 °F 68% 30.19 in 10.0 mi East 3.5 mph - N/A   Clear
8:36 PM 66.2 °F 55.4 °F 68% 30.19 in 10.0 mi East 3.5 mph - N/A   Clear
8:55 PM 62.6 °F 55.4 °F 77% 30.20 in 10.0 mi Calm Calm - N/A   Clear
8:56 PM 62.6 °F 57.2 °F 82% 30.20 in 10.0 mi Calm Calm - N/A   Clear
9:15 PM 64.4 °F 55.4 °F 73% 30.21 in 10.0 mi ESE 3.5 mph - N/A   Clear
9:20 PM 62.6 °F 55.4 °F 77% 30.21 in 7.0 mi ESE 4.6 mph - N/A   Clear
9:37 PM 62.6 °F 55.4 °F 77% 30.22 in 10.0 mi ESE 3.5 mph - N/A   Clear
10:15 PM 62.6 °F 55.4 °F 77% 30.23 in 10.0 mi ESE 4.6 mph - N/A   Clear
10:16 PM 62.6 °F 55.4 °F 77% 30.23 in 10.0 mi ESE 4.6 mph - N/A   Clear
10:35 PM 62.6 °F 55.4 °F 77% 30.24 in 10.0 mi East 3.5 mph - N/A   Clear
10:58 PM 62.6 °F 55.4 °F 77% 30.24 in 10.0 mi Calm Calm - N/A   Clear
11:17 PM 60.8 °F 55.4 °F 82% 30.24 in 10.0 mi Calm Calm - N/A   Clear
11:36 PM 60.8 °F 55.4 °F 82% 30.25 in 10.0 mi Calm Calm - N/A   Clear
11:55 PM 60.8 °F 55.4 °F 82% 30.25 in 10.0 mi Calm Calm - N/A   Clear